Total_Precipitation_Accumulation
1.78 2.00 1.87 1.68 1.67 1.66 1.84 2.11 2.23 1.92 1.65 1.56 1.52 1.52 1.71 1.81 2.00 1.88 1.71 1.80 1.63 1.45 1.35 1.31 1.33 1.40 1.45 1.49 1.57 1.69 1.84 1.95 2.08 2.33 2.71 3.11 3.49 3.87
1.86 2.05 2.03 1.87 1.86 1.78 1.82 1.99 2.23 2.19 1.87 1.57 1.61 1.57 1.64 1.51 1.72 1.59 1.62 1.76 1.59 1.48 1.43 1.37 1.34 1.36 1.38 1.44 1.47 1.47 1.48 1.51 1.52 1.59 1.74 1.95 2.22 2.55
1.84 1.91 1.95 2.09 2.10 2.01 2.11 2.16 2.23 2.37 2.13 1.71 1.74 1.86 1.88 1.71 1.68 1.60 1.57 1.57 1.49 1.53 1.43 1.39 1.33 1.29 1.23 1.19 1.26 1.31 1.32 1.34 1.35 1.38 1.42 1.44 1.47 1.58
1.89 2.04 1.96 2.06 2.15 2.19 2.36 2.24 2.30 2.58 2.50 2.15 2.08 2.18 2.09 1.96 1.91 1.81 1.56 1.46 1.43 1.60 1.49 1.38 1.29 1.21 1.18 1.14 1.13 1.16 1.18 1.19 1.22 1.26 1.29 1.24 1.21 1.25
2.00 2.09 2.14 2.34 2.25 2.30 2.35 2.28 2.32 2.56 2.75 2.50 2.28 2.39 2.34 2.12 2.11 1.89 1.72 1.73 1.50 1.53 1.54 1.42 1.32 1.25 1.17 1.15 1.14 1.10 1.05 1.03 1.02 1.07 1.14 1.20 1.23 1.26
2.08 2.13 2.17 2.25 2.34 2.50 2.48 2.54 2.71 2.89 3.02 2.85 2.67 2.73 2.75 2.65 2.46 2.10 1.99 1.87 1.72 1.54 1.60 1.49 1.42 1.35 1.24 1.16 1.11 1.10 1.08 1.06 1.05 1.04 1.05 1.09 1.15 1.20
2.03 2.09 2.07 2.21 2.30 2.43 2.34 2.54 2.88 3.07 3.19 3.20 3.11 3.25 3.18 3.07 2.73 2.38 2.27 2.15 1.95 1.68 1.60 1.48 1.44 1.35 1.31 1.28 1.22 1.17 1.14 1.11 1.11 1.13 1.14 1.11 1.12 1.15
2.16 2.19 2.15 2.16 2.08 2.13 2.20 2.33 2.55 2.73 2.94 3.16 3.21 3.29 3.31 3.24 3.07 2.78 2.43 2.16 1.95 1.77 1.79 1.65 1.52 1.44 1.31 1.22 1.32 1.28 1.19 1.15 1.14 1.13 1.15 1.18 1.21 1.25
2.22 2.24 2.04 1.90 1.97 1.87 2.01 2.08 2.04 2.08 2.22 2.52 2.71 2.75 3.02 3.17 3.10 2.70 2.39 2.10 1.87 1.81 1.87 1.73 1.59 1.48 1.35 1.31 1.41 1.27 1.20 1.17 1.13 1.10 1.11 1.13 1.17 1.22
2.01 2.05 2.02 1.92 1.91 2.00 2.00 1.88 1.69 1.64 1.76 1.77 1.84 2.09 2.43 2.81 2.94 2.78 2.72 2.43 2.09 1.85 1.80 1.72 1.54 1.43 1.32 1.28 1.40 1.32 1.21 1.16 1.13 1.10 1.05 1.03 1.05 1.09
1.95 1.96 1.93 1.79 1.94 1.89 1.82 1.81 1.69 1.57 1.58 1.60 1.66 1.86 2.15 2.43 2.68 2.72 2.63 2.52 2.21 1.87 1.75 1.71 1.54 1.49 1.42 1.30 1.27 1.31 1.22 1.18 1.16 1.14 1.11 1.09 1.08 1.09
2.02 2.03 2.04 1.89 1.95 1.89 1.83 1.85 1.73 1.63 1.63 1.60 1.61 1.66 1.73 2.04 2.37 2.38 2.38 2.43 2.26 2.00 1.70 1.70 1.59 1.58 1.53 1.25 1.07 1.06 1.08 1.17 1.19 1.14 1.10 1.09 1.12 0.99
2.02 1.95 1.97 1.99 1.78 1.65 1.58 1.57 1.63 1.68 1.68 1.60 1.53 1.53 1.58 1.70 1.92 2.01 2.10 2.14 2.09 1.88 1.62 1.68 1.64 1.60 1.50 1.29 1.13 1.05 1.00 0.99 1.00 1.03 1.06 1.10 1.09 0.95
1.82 1.79 1.78 1.75 1.55 1.39 1.23 1.18 1.26 1.28 1.33 1.40 1.38 1.34 1.37 1.43 1.62 1.89 2.06 2.09 2.02 1.90 1.84 1.80 1.71 1.66 1.60 1.43 1.23 1.09 1.02 0.95 0.88 0.82 0.84 1.08 1.14 1.14
1.54 1.74 1.72 1.59 1.45 1.34 1.27 1.19 1.10 1.03 1.13 1.22 1.17 1.17 1.21 1.32 1.49 1.80 2.05 2.25 2.18 1.94 1.81 1.79 1.75 1.72 1.66 1.43 1.17 1.04 1.01 0.95 0.89 0.86 0.85 0.91 0.97 1.04
1.48 1.64 1.71 1.69 1.58 1.47 1.36 1.19 1.01 1.00 1.04 1.11 1.18 1.22 1.32 1.40 1.49 1.61 1.88 2.07 2.15 1.99 1.75 1.71 1.73 1.76 1.64 1.45 1.29 1.11 1.00 0.95 0.89 0.93 0.98 0.97 0.99 1.03
1.58 1.66 1.78 1.81 1.78 1.67 1.51 1.35 1.23 1.19 1.15 1.14 1.25 1.30 1.35 1.38 1.38 1.43 1.63 1.79 1.78 1.67 1.60 1.59 1.68 1.76 1.75 1.66 1.42 1.13 1.02 0.95 0.90 1.01 1.13 1.10 1.00 1.00
1.43 1.56 1.83 1.90 1.91 1.88 1.77 1.58 1.44 1.35 1.30 1.30 1.32 1.33 1.35 1.40 1.45 1.50 1.58 1.71 1.71 1.62 1.57 1.53 1.68 1.84 1.82 1.69 1.41 1.18 1.04 0.98 0.99 1.10 1.16 1.14 1.04 0.99
1.16 1.34 1.65 1.85 1.93 1.93 1.85 1.65 1.47 1.45 1.50 1.47 1.43 1.40 1.40 1.43 1.53 1.58 1.65 1.74 1.78 1.73 1.65 1.68 1.78 1.87 1.79 1.51 1.26 1.16 1.18 1.15 1.19 1.18 1.14 1.13 1.07 1.02
1.10 1.25 1.49 1.77 1.90 1.95 1.92 1.85 1.70 1.66 1.66 1.62 1.58 1.53 1.49 1.51 1.52 1.54 1.58 1.62 1.67 1.74 1.69 1.67 1.68 1.66 1.63 1.56 1.45 1.27 1.23 1.32 1.37 1.32 1.24 1.27 1.22 1.22
1.25 1.30 1.40 1.60 1.81 1.93 1.94 1.91 1.84 1.80 1.80 1.81 1.76 1.70 1.66 1.69 1.64 1.56 1.58 1.66 1.67 1.68 1.60 1.40 1.39 1.59 1.77 1.94 1.78 1.38 1.24 1.29 1.41 1.48 1.43 1.46 1.40 1.34
1.37 1.38 1.42 1.56 1.76 1.93 1.99 1.94 1.94 1.88 1.87 1.86 1.81 1.77 1.72 1.73 1.73 1.70 1.71 1.74 1.68 1.63 1.60 1.53 1.61 1.82 1.90 1.87 1.67 1.49 1.40 1.37 1.45 1.51 1.46 1.40 1.36 1.26
1.55 1.52 1.55 1.66 1.77 1.86 1.86 1.80 1.80 1.86 1.83 1.80 1.78 1.76 1.71 1.67 1.67 1.73 1.73 1.77 1.75 1.73 1.77 1.82 1.84 1.82 1.75 1.75 1.68 1.60 1.56 1.53 1.54 1.51 1.35 1.28 1.15 1.05